Regional Weather Roundup
Issued by NWS

Home | Current Version | Previous Version | Graphics & Text | Print | Product List | Glossary On
Versions: 1 2 3 4 5 6 7 8 9 10 11 12 13 14 15 16 17 18 19 20 21 22 23 24 25 26 27 28 29 30 31 32 33 34 35 36 37 38 39 40 41 42 43 44 45 46 47 48 49 50
000
ASUS43 KLSX 101107
RWRMO

WEATHER SUMMARY FOR MISSOURI
NATIONAL WEATHER SERVICE SPRINGFIELD MO
500 AM CST WED FEB 10 2016

NOTE: "FAIR" INDICATES FEW OR NO CLOUDS BELOW 12,000 FEET WITH NO
       SIGNIFICANT WEATHER AND/OR OBSTRUCTIONS TO VISIBILITY.
       CURRENT SKY AND/OR WEATHER CONDITIONS ARE NOT AVAILABLE FOR
       CHILLICOTHE AND FARMINGTON.

MOZ001>031-035>038-043-044-053-054-101200-
...NORTHERN AND WESTERN MISSOURI...

CITY           SKY/WX    TMP DP  RH WIND       PRES   REMARKS
KANSAS CTY INT CLOUDY    22  14  71 SW7       30.15F WCI  13
KANSAS C DTWN  CLOUDY    24  13  62 SW7       30.18F WCI  16
LEE`S SUMMIT   MOCLDY    21  12  68 SW6       30.17F WCI  13
ST JOSEPH      CLOUDY    23  15  71 S7        30.15F WCI  15
CHILLICOTHE      N/A     18  13  80 CALM      30.17F
KIRKSVILLE     CLEAR     12   6  77 W5        30.15S WCI   4

$$
MOZ066>068-077>081-088>096-101>105-101200-
...SOUTHWEST MISSOURI...

CITY           SKY/WX    TMP DP  RH WIND       PRES   REMARKS
SPRINGFIELD    CLEAR     19   8  62 NW5       30.20R WCI  12
JOPLIN         CLOUDY    21  13  71 SW5       30.25F WCI  15

$$
MOZ032>034-039>042-045>050-055>058-069>072-101200-
...CENTRAL MISSOURI...

CITY           SKY/WX    TMP DP  RH WIND       PRES   REMARKS
COLUMBIA       CLEAR     15   8  73 W5        30.16F WCI   8
JEFFERSON CITY CLEAR     17   8  67 CALM      30.20F
ROLLA          CLEAR     13   7  77 W5        30.14S WCI   5
SEDALIA        CLEAR     19  10  68 W6        30.20F WCI  11
WHITEMAN AFB   MOCLDY    17  11  75 SW2       30.17F
WARRENSBURG    CLOUDY    23  14  68 W5        30.20F WCI  17
OSAGE BEACH    CLEAR     19   7  58 W5        30.20S WCI  13

$$
MOZ051-052-059>065-101200-
...EAST CENTRAL MISSOURI...

CITY           SKY/WX    TMP DP  RH WIND       PRES   REMARKS
ST LOUIS INTL  PTCLDY    17   6  62 NW10      30.17R WCI   5
SPIRIT OF STL  CLEAR     14   7  73 W5        30.18R WCI   6
ST CHARLES     PTCLDY    15   6  67 NW7       30.17S WCI   5

$$
MOZ072>076-082>087-097>100-106>115-101200-
...SOUTH CENTRAL AND SOUTHEAST MISSOURI...

CITY           SKY/WX    TMP DP  RH WIND       PRES   REMARKS
CAPE GIRARDEAU CLEAR     18   5  57 NW13G20   30.19R WCI   5
FARMINGTON     CLEAR     14   6  70 NW8       30.16R WCI   3
POPLAR BLUFF   PTCLDY    20   6  55 NW9       30.20R WCI   9
WEST PLAINS    CLEAR     18   5  57 NW7       30.17R WCI   9

$$


USA.gov is the U.S. government's official web portal to all federal, state and local government web resources and services.